Home   Weather   Flint   Past weeks

Flag for USA Past Weather in Flint, Michigan, USA — Yesterday and Last 2 Weeks

Now
53 °F

Overcast.


Feels Like: 51 °F
Forecast: 50 / 72 °F
Wind: 8 mph from West

Location: Bishop International Airport

Current Time: Jun 27, 2017 at 6:36:08 am

Latest Report: Jun 27, 2017 at 5:53 am


Visibility: 10 mi

Pressure: 30.02 "Hg

Humidity: 86%

Dew Point: 49 °F

Location of FlintLocation

Past Weather in Flint — Graph

°F

Flint Temperature Yesterday

Maximum temperature yesterday: 70 °F (at 3:53 pm)
Minimum temperature yesterday: 53 °F (at 3:53 am)
Average temperature yesterday: 60 °F

High & Low Weather Summary for the Past Weeks

 TemperatureHumidityPressure
High91 °F (Jun 12, 2:53 pm)100% (Jun 16, 5:53 am)30.03 "Hg (Jun 16, 5:53 am)
Low48 °F (Jun 21, 5:07 am)36% (Jun 26, 4:53 pm)29.53 "Hg (Jun 18, 5:53 am)
Average69 °F70%29.84 "Hg
* Reported Jun 12 4:53 am — Jun 27 4:53 am, Flint. Weather by CustomWeather, © 2017

Note: Actual official high and low records may vary slightly from our data, if they occured in-between our weather recording intervals... More about our weather records

Advertising

Flint Weather History for the Previous 24 Hours

Scroll right to see more
 ConditionsComfort  
Time TempWeatherWind HumidityBarometerVisibility
4:53 am
Tue, Jun 27
52 °FOvercast.9 mph86%30.01 "Hg10 mi
3:53 am51 °FMostly cloudy.10 mph86%29.99 "Hg10 mi
3:34 am52 °FOvercast.13 mph86%29.99 "Hg10 mi
3:09 am53 °FLight rain. Mostly cloudy.17 mph86%29.99 "Hg10 mi
3:02 am53 °FMostly cloudy.14 mph83%29.99 "Hg10 mi
2:53 am53 °FPassing clouds.14 mph80%29.98 "Hg10 mi
2:35 am52 °FPassing clouds.12 mph83%29.99 "Hg10 mi
1:53 am52 °FPassing clouds.12 mph80%29.98 "Hg10 mi
12:53 am54 °FOvercast.9 mph72%29.99 "Hg10 mi
11:53 pm
Mon, Jun 26
54 °FPartly cloudy.9 mph74%29.98 "Hg10 mi
10:53 pm55 °FPassing clouds.9 mph69%29.98 "Hg10 mi
9:53 pm56 °FPassing clouds.9 mph67%29.97 "Hg10 mi
8:53 pm58 °FPartly sunny.10 mph62%29.97 "Hg10 mi
7:53 pm63 °FPassing clouds.15 mph45%29.96 "Hg10 mi
6:53 pm67 °FSunny.13 mph39%29.95 "Hg10 mi
5:53 pm68 °FSunny.16 mph39%29.96 "Hg10 mi
4:53 pm69 °FPassing clouds.22 mph36%29.96 "Hg10 mi
3:53 pm70 °FScattered clouds.21 mph38%29.97 "Hg10 mi
2:53 pm68 °FPartly sunny.20 mph39%29.98 "Hg10 mi
1:53 pm69 °FBroken clouds.17 mph49%29.98 "Hg10 mi
12:53 pm66 °FScattered clouds.16 mph49%29.99 "Hg10 mi
11:53 am67 °FScattered clouds.16 mph49%30.01 "Hg10 mi
10:53 am62 °FBroken clouds.17 mph56%30.02 "Hg10 mi
9:53 am63 °FPassing clouds.17 mph58%30.03 "Hg10 mi
9:26 am61 °FScattered clouds.16 mph65%30.03 "Hg10 mi
8:53 am60 °FBroken clouds.16 mph72%30.03 "Hg10 mi
8:31 am58 °FPartly sunny.15 mph78%30.03 "Hg10 mi
8:16 am57 °FScattered clouds.15 mph83%30.03 "Hg10 mi
8:05 am57 °FPartly sunny.13 mph83%30.02 "Hg10 mi
7:53 am56 °FScattered clouds.12 mph87%30.02 "Hg10 mi
7:34 am56 °FOvercast.8 mph87%30.02 "Hg10 mi
7:16 am55 °FPartly sunny.8 mph90%30.02 "Hg10 mi
6:53 am54 °FScattered clouds.7 mph90%30.02 "Hg10 mi
6:09 am54 °FScattered clouds.8 mph86%30.02 "Hg10 mi
Weather by CustomWeather, © 2017

See weather overviewHow to use our weather pages